H1 CPF 2 NER 2025 9 4 9 247 01 glonass135 H2 1600801 9135 41330 2025 9 4 0 0 0 2025 9 7 23 45 0 900 1 1 0 0 0 1 H9 10 0 60922 0.00000 0 19375495.619 -12606458.373 -10836248.837 10 0 60922 900.00000 0 20380532.842 -13202301.563 -7889178.080 10 0 60922 1800.00000 0 21005683.051 -13706010.479 -4789284.081 10 0 60922 2700.00000 0 21257473.148 -14060544.108 -1596639.655 10 0 60922 3600.00000 0 21155287.109 -14212806.571 1626918.719 10 0 60922 4500.00000 0 20730389.228 -14116070.044 4818980.228 10 0 60922 5400.00000 0 20024468.955 -13732142.264 7917758.290 10 0 60922 6300.00000 0 19087768.871 -13033187.809 10863275.914 10 0 60922 7200.00000 0 17976874.433 -12003126.761 13598515.637 10 0 60922 8100.00000 0 16752257.873 -10638551.758 16070512.749 10 0 60922 9000.00000 0 15475678.594 -8949124.333 18231371.578 10 0 60922 9900.00000 0 14207548.155 -6957432.747 20039186.075 10 0 60922 10800.00000 0 13004369.320 -4698315.656 21458847.694 10 0 60922 11700.00000 0 11916355.507 -2217677.744 22462725.594 10 0 60922 12600.00000 0 10985329.639 429155.648 23031206.289 10 0 60922 13500.00000 0 10242989.972 3179478.901 23153082.333 10 0 60922 14400.00000 0 9709615.475 5965559.177 22825782.082 10 0 60922 15300.00000 0 9393265.425 8717206.564 22055435.299 10 0 60922 16200.00000 0 9289507.513 11364456.430 20856772.119 10 0 60922 17100.00000 0 9381686.954 13840253.855 19252855.886 10 0 60922 18000.00000 0 9641726.506 16083029.263 17274653.418 10 0 60922 18900.00000 0 10031424.981 18039058.221 14960449.368 10 0 60922 19800.00000 0 10504200.552 19664506.669 12355114.577 10 0 60922 20700.00000 0 11007206.005 20927075.410 9509241.449 10 0 60922 21600.00000 0 11483726.738 21807174.084 6478162.439 10 0 60922 22500.00000 0 11875759.717 22298574.459 3320870.496 10 0 60922 23400.00000 0 12126663.232 22408514.741 98862.883 10 0 60922 24300.00000 0 12183763.741 22157250.113 -3125068.250 10 0 60922 25200.00000 0 12000807.498 21577068.392 -6288073.668 10 0 60922 26100.00000 0 11540151.021 20710812.884 -9328487.490 10 0 60922 27000.00000 0 10774595.598 19609975.743 -12187044.341 10 0 60922 27900.00000 0 9688786.289 18332443.694 -14808047.914 10 0 60922 28800.00000 0 8280114.777 16939992.902 -17140466.644 10 0 60922 29700.00000 0 6559086.783 15495640.265 -19138934.188 10 0 60922 30600.00000 0 4549137.908 14060964.271 -20764634.613 10 0 60922 31500.00000 0 2285905.351 12693509.357 -21986054.969 10 0 60922 32400.00000 0 -184013.861 11444383.557 -22779590.992 10 0 60922 33300.00000 0 -2804765.911 10356150.420 -23129994.977 10 0 60922 34200.00000 0 -5513332.931 9461103.130 -23030658.157 10 0 60922 35100.00000 0 -8241927.887 8779992.051 -22483723.373 10 0 60922 36000.00000 0 -10920591.750 8321257.451 -21500027.154 10 0 60922 36900.00000 0 -13479885.016 8080797.655 -20098873.519 10 0 60922 37800.00000 0 -15853562.175 8042280.240 -18307645.007 10 0 60922 38700.00000 0 -17981118.790 8177981.199 -16161259.309 10 0 60922 39600.00000 0 -19810106.448 8450114.972 -13701482.685 10 0 60922 40500.00000 0 -21298120.755 8812597.953 -10976113.892 10 0 60922 41400.00000 0 -22414381.278 9213170.169 -8038054.594 10 0 60922 42300.00000 0 -23140839.359 9595785.157 -4944284.320 10 0 60922 43200.00000 0 -23472769.362 9903167.113 -1754759.641 10 0 60922 44100.00000 0 -23418820.297 10079427.659 1468741.409 10 0 60922 45000.00000 0 -23000527.073 10072632.278 4663807.694 10 0 60922 45900.00000 0 -22251302.888 9837208.716 7768593.706 10 0 60922 46800.00000 0 -21214955.612 9336096.374 10723006.120 10 0 60922 47700.00000 0 -19943790.504 8542546.464 13469856.021 10 0 60922 48600.00000 0 -18496378.530 7441497.226 15955955.382 10 0 60922 49500.00000 0 -16935083.073 6030466.005 18133137.546 10 0 60922 50400.00000 0 -15323447.744 4319919.870 19959182.849 10 0 60922 51300.00000 0 -13723553.444 2333107.813 21398632.332 10 0 60922 52200.00000 0 -12193454.124 105359.640 22423474.440 10 0 60922 53100.00000 0 -10784797.438 -2317121.480 23013691.764 10 0 60922 54000.00000 0 -9540728.956 -4878925.012 23157657.280 10 0 60922 54900.00000 0 -8494167.077 -7517490.863 22852372.044 10 0 60922 55800.00000 0 -7666520.725 -10165475.841 22103538.911 10 0 60922 56700.00000 0 -7066903.800 -12753332.503 20925469.729 10 0 60922 57600.00000 0 -6691879.899 -15211994.833 19340826.316 10 0 60922 58500.00000 0 -6525748.906 -17475560.026 17380198.638 10 0 60922 59400.00000 0 -6541364.354 -19483855.119 15081526.704 10 0 60922 60300.00000 0 -6701448.006 -21184781.270 12489375.892 10 0 60922 61200.00000 0 -6960346.887 -22536337.029 9654078.599 10 0 60922 62100.00000 0 -7266158.807 -23508234.915 6630758.116 10 0 60922 63000.00000 0 -7563136.219 -24083042.323 3478253.471 10 0 60922 63900.00000 0 -7794265.846 -24256797.712 257966.511 10 0 60922 64800.00000 0 -7903913.483 -24039075.234 -2967345.482 10 0 60922 65700.00000 0 -7840420.079 -23452494.632 -6134806.825 10 0 60922 66600.00000 0 -7558537.071 -22531697.069 -9182664.396 10 0 60922 67500.00000 0 -7021595.620 -21321830.623 -12051506.593 10 0 60922 68400.00000 0 -6203315.899 -19876610.352 -14685434.899 10 0 60922 69300.00000 0 -5089178.104 -18256036.064 -17033163.741 10 0 60922 70200.00000 0 -3677295.942 -16523865.506 -19049026.154 10 0 60922 71100.00000 0 -1978754.744 -14744950.768 -20693865.080 10 0 60922 72000.00000 0 -17399.526 -12982551.197 -21935792.822 10 0 60922 72900.00000 0 2170918.275 -11295736.462 -22750804.256 10 0 60922 73800.00000 0 4539603.653 -9736988.951 -23123232.657 10 0 60922 74700.00000 0 7033037.329 -8350105.665 -23046040.345 10 0 60922 75600.00000 0 9588679.325 -7168486.435 -22520939.752 10 0 60922 76500.00000 0 12139468.898 -6213878.606 -21558343.859 10 0 60922 77400.00000 0 14616420.741 -5495628.738 -20177148.174 10 0 60922 78300.00000 0 16951309.624 -5010470.405 -18404349.580 10 0 60922 79200.00000 0 19079332.307 -4742854.639 -16274510.299 10 0 60922 80100.00000 0 20941636.721 -4665806.913 -13829078.030 10 0 60922 81000.00000 0 22487614.314 -4742272.686 -11115575.852 10 0 60922 81900.00000 0 23676861.363 -4926893.346 -8186677.787 10 0 60922 82800.00000 0 24480729.020 -5168136.647 -5099187.981 10 0 60922 83700.00000 0 24883398.903 -5410691.245 -1912943.124 10 0 60922 84600.00000 0 24882440.827 -5598024.143 1310340.949 10 0 60922 85500.00000 0 24488830.613 -5674993.326 4508256.525 10 0 60923 0.00000 0 23726428.358 -5590405.785 7618902.463 10 0 60923 900.00000 0 22630939.142 -5299413.460 10582072.973 10 0 60923 1800.00000 0 21248401.036 -4765646.675 13340410.335 10 0 60923 2700.00000 0 19633262.083 -3962995.333 15840505.718 10 0 60923 3600.00000 0 17846127.061 -2876962.835 18033923.540 10 0 60923 4500.00000 0 15951266.940 -1505535.298 19878132.140 10 0 60923 5400.00000 0 14013993.997 140471.532 21337323.322 10 0 60923 6300.00000 0 12098010.899 2037603.818 22383105.570 10 0 60923 7200.00000 0 10262843.192 4150493.677 22995057.892 10 0 60923 8100.00000 0 8561461.202 6433087.980 23161133.624 10 0 60923 9000.00000 0 7038189.790 8830333.263 22877906.028 10 0 60923 9900.00000 0 5726992.723 11280249.133 22150650.155 10 0 60923 10800.00000 0 4650203.215 13716306.212 20993258.266 10 0 60923 11700.00000 0 3817753.973 16070011.567 19427988.972 10 0 60923 12600.00000 0 3226939.515 18273595.267 17485053.366 10 0 60923 13500.00000 0 2862721.413 20262686.830 15202044.499 10 0 60923 14400.00000 0 2698564.322 21978869.904 12623219.731 10 0 60923 15300.00000 0 2697768.157 23372007.826 9798648.692 10 0 60923 16200.00000 0 2815240.466 24402241.665 6783242.616 10 0 60923 17100.00000 0 2999633.955 25041575.657 3635683.621 10 0 60923 18000.00000 0 3195758.035 25274981.977 417275.121 10 0 60923 18900.00000 0 3347161.104 25100977.140 -2809263.444 10 0 60923 19800.00000 0 3398772.472 24531644.788 -5981032.789 10 0 60923 20700.00000 0 3299490.001 23592103.406 -9036195.198 10 0 60923 21600.00000 0 3004601.642 22319441.459 -11915195.210 10 0 60923 22500.00000 0 2477936.216 20761165.373 -14561934.181 10 0 60923 23400.00000 0 1693650.464 18973226.762 -16924874.283 10 0 60923 24300.00000 0 637575.294 17017713.222 -18958049.385 10 0 60923 25200.00000 0 -691936.774 14960301.179 -20621962.496 10 0 60923 26100.00000 0 -2283699.385 12867579.036 -21884352.115 10 0 60923 27000.00000 0 -4113928.718 10804353.879 -22720812.972 10 0 60923 27900.00000 0 -6147018.516 8831054.995 -23115259.801 10 0 60923 28800.00000 0 -8336820.977 7001342.795 -23060226.220 10 0 60923 29700.00000 0 -10628379.529 5360022.347 -22556994.151 10 0 60923 30600.00000 0 -12960040.765 3941347.340 -21615552.562 10 0 60923 31500.00000 0 -15265857.141 2767783.485 -20254387.592 10 0 60923 32400.00000 0 -17478180.258 1849280.755 -18500109.210 10 0 60923 33300.00000 0 -19530336.896 1183082.401 -16386922.545 10 0 60923 34200.00000 0 -21359276.824 754076.235 -13955954.793 10 0 60923 35100.00000 0 -22908082.808 535671.088 -11254451.179 10 0 60923 36000.00000 0 -24128239.223 491159.571 -8334855.742 10 0 60923 36900.00000 0 -24981565.781 575508.259 -5253794.805 10 0 60923 37800.00000 0 -25441736.915 737498.781 -2070982.674 10 0 60923 38700.00000 0 -25495324.611 922128.982 1151929.557 10 0 60923 39600.00000 0 -25142322.194 1073172.721 4352540.162 10 0 60923 40500.00000 0 -24396128.080 1135790.505 7468895.499 10 0 60923 41400.00000 0 -23282990.771 1059081.234 10440678.782 10 0 60923 42300.00000 0 -21840938.497 798467.944 13210366.628 10 0 60923 43200.00000 0 -20118238.099 317817.402 15724331.892 10 0 60923 44100.00000 0 -18171446.923 -408795.527 17933872.429 10 0 60923 45000.00000 0 -16063138.144 -1395753.166 19796146.731 10 0 60923 45900.00000 0 -13859393.219 -2645046.708 21274999.239 10 0 60923 46800.00000 0 -11627164.578 -4145951.116 22341660.023 10 0 60923 47700.00000 0 -9431617.093 -5875238.581 22975305.676 10 0 60923 48600.00000 0 -7333557.675 -7797923.811 23163470.666 10 0 60923 49500.00000 0 -5387058.951 -9868512.482 22902300.843 10 0 60923 50400.00000 0 -3637375.235 -12032703.340 22196643.447 10 0 60923 51300.00000 0 -2119237.209 -14229475.436 21059970.752 10 0 60923 52200.00000 0 -855596.402 -16393475.621 19514137.394 10 0 60923 53100.00000 0 143127.804 -18457608.367 17588974.456 10 0 60923 54000.00000 0 879266.669 -20355720.828 15321726.525 10 0 60923 54900.00000 0 1367576.377 -22025271.317 12756341.096 10 0 60923 55800.00000 0 1634381.288 -23409869.184 9942622.875 10 0 60923 56700.00000 0 1716221.995 -24461578.750 6935268.608 10 0 60923 57600.00000 0 1658065.297 -25142889.285 3792800.864 10 0 60923 58500.00000 0 1511152.303 -25428266.620 576421.830 10 0 60923 59400.00000 0 1330576.716 -25305219.540 -2651189.786 10 0 60923 60300.00000 0 1172697.406 -24774834.658 -5827114.059 10 0 60923 61200.00000 0 1092496.730 -23851756.222 -8889431.658 10 0 60923 62100.00000 0 1140998.672 -22563611.208 -11778446.245 10 0 60923 63000.00000 0 1362858.287 -20949903.983 -14437861.960 10 0 60923 63900.00000 0 1794226.518 -19060427.635 -16815891.515 10 0 60923 64800.00000 0 2460982.375 -16953259.772 -18866272.209 10 0 60923 65700.00000 0 3377408.459 -14692428.156 -20549169.421 10 0 60923 66600.00000 0 4545366.517 -12345345.369 -21831949.799 10 0 60923 67500.00000 0 5954008.110 -9980121.006 -22689809.444 10 0 60923 68400.00000 0 7580032.580 -7662864.488 -23106245.617 10 0 60923 69300.00000 0 9388481.145 -5455091.394 -23073363.837 10 0 60923 70200.00000 0 11334033.381 -3411341.088 -22592015.661 10 0 60923 71100.00000 0 13362751.344 -1577103.987 -21671765.770 10 0 60923 72000.00000 0 15414197.954 12856.741 -20330690.246 10 0 60923 72900.00000 0 17423840.889 1335721.167 -18595011.059 10 0 60923 73800.00000 0 19325641.614 2381317.961 -16498574.758 10 0 60923 74700.00000 0 21054721.680 3152292.289 -14082186.138 10 0 60923 75600.00000 0 22549995.509 3663731.795 -11392810.254 10 0 60923 76500.00000 0 23756660.452 3942268.733 -8482658.447 10 0 60923 77400.00000 0 24628441.040 4024697.970 -5408176.146 10 0 60923 78300.00000 0 25129494.639 3956170.530 -2228951.928 10 0 60923 79200.00000 0 25235899.906 3788039.758 993431.359 10 0 60923 80100.00000 0 24936666.712 3575451.416 4196581.515 10 0 60923 81000.00000 0 24234226.088 3374779.397 7318495.590 10 0 60923 81900.00000 0 23144380.182 3241014.953 10298749.623 10 0 60923 82800.00000 0 21695714.486 3225219.060 13079657.257 10 0 60923 83700.00000 0 19928496.657 3372144.801 15607375.689 10 0 60923 84600.00000 0 17893107.286 3718129.493 17832938.494 10 0 60923 85500.00000 0 15648067.103 4289345.147 19713196.249 10 0 60924 0.00000 0 13257741.770 5100480.960 21211647.483 10 0 60924 900.00000 0 10789817.036 6153914.416 22299145.325 10 0 60924 1800.00000 0 8312650.966 7439405.873 22954464.643 10 0 60924 2700.00000 0 5892607.573 8934332.649 23164721.490 10 0 60924 3600.00000 0 3591484.518 10604453.956 22925634.341 10 0 60924 4500.00000 0 1464139.509 12405177.507 22241622.211 10 0 60924 5400.00000 0 -443586.335 14283277.234 21125736.525 10 0 60924 6300.00000 0 -2096562.049 16178992.671 19599426.612 10 0 60924 7200.00000 0 -3471606.633 18028424.116 17692141.781 10 0 60924 8100.00000 0 -4558223.044 19766124.771 15440776.013 10 0 60924 9000.00000 0 -5358795.179 21327782.059 12888964.461 10 0 60924 9900.00000 0 -5888239.125 22652875.699 10086244.178 10 0 60924 10800.00000 0 -6173122.996 23687200.310 7087094.507 10 0 60924 11700.00000 0 -6250292.414 24385145.332 3949875.424 10 0 60924 12600.00000 0 -6165060.009 24711634.693 735684.778 10 0 60924 13500.00000 0 -5969036.305 24643642.776 -2492842.569 10 0 60924 14400.00000 0 -5717695.090 24171221.082 -5672769.080 10 0 60924 15300.00000 0 -5467778.100 23297990.854 -8742096.701 10 0 60924 16200.00000 0 -5274650.943 22041079.908 -11640990.875 10 0 60924 17100.00000 0 -5189724.365 20430505.821 -14312960.919 10 0 60924 18000.00000 0 -5258052.073 18508031.532 -16705972.167 10 0 60924 18900.00000 0 -5516208.522 16325542.013 -18773467.114 10 0 60924 19800.00000 0 -5990537.730 13943011.046 -20475274.968 10 0 60924 20700.00000 0 -6695848.000 11426144.437 -21778391.696 10 0 60924 21600.00000 0 -7634607.963 8843799.340 -22657615.670 10 0 60924 22500.00000 0 -8796677.812 6265288.305 -23096027.295 10 0 60924 23400.00000 0 -10159586.621 3757681.008 -23085304.313 10 0 60924 24300.00000 0 -11689343.524 1383215.991 -22625867.905 10 0 60924 25200.00000 0 -13341748.044 -803070.540 -21726858.083 10 0 60924 26100.00000 0 -15064144.000 -2755401.364 -20405940.094 10 0 60924 27000.00000 0 -16797543.041 -4438916.627 -18688946.727 10 0 60924 27900.00000 0 -18479028.679 -5830867.100 -16609364.385 10 0 60924 28800.00000 0 -20044340.178 -6921295.083 -14207673.556 10 0 60924 29700.00000 0 -21430528.473 -7713177.192 -11530556.951 10 0 60924 30600.00000 0 -22578573.482 -8222025.593 -8629990.825 10 0 60924 31500.00000 0 -23435853.963 -8474966.706 -5562237.189 10 0 60924 32400.00000 0 -23958367.358 -8509337.955 -2386756.264 10 0 60924 33300.00000 0 -24112607.547 -8370862.977 834940.043 10 0 60924 34200.00000 0 -23877022.679 -8111483.007 4040471.804 10 0 60924 35100.00000 0 -23242992.718 -7786936.159 7167789.517 10 0 60924 36000.00000 0 -22215286.194 -7454186.605 10156364.810 10 0 60924 36900.00000 0 -20811977.143 -7168811.645 12948351.068 10 0 60924 37800.00000 0 -19063825.441 -6982456.204 15489692.435 10 0 60924 38700.00000 0 -17013145.718 -6940461.409 17731160.649 10 0 60924 39600.00000 0 -14712210.992 -7079766.603 19629300.556 10 0 60924 40500.00000 0 -12221256.149 -7427172.866 21147266.894 10 0 60924 41400.00000 0 -9606162.719 -7998041.240 22255536.844 10 0 60924 42300.00000 0 -6935919.472 -8795481.048 22932485.001 10 0 60924 43200.00000 0 -4279962.586 -9810063.591 23164809.764 10 0 60924 44100.00000 0 -1705504.226 -11020074.932 22947802.611 10 0 60924 45000.00000 0 725040.842 -12392299.258 22285454.348 10 0 60924 45900.00000 0 2956424.694 -13883302.288 21190395.214 10 0 60924 46800.00000 0 4942633.835 -15441163.232 19683668.563 10 0 60924 47700.00000 0 6648568.973 -17007584.796 17794340.920 10 0 60924 48600.00000 0 8051266.812 -18520294.384 15558954.293 10 0 60924 49500.00000 0 9140612.414 -19915636.795 13020829.770 10 0 60924 50400.00000 0 9919511.765 -21131249.866 10229234.671 10 0 60924 51300.00000 0 10403516.902 -22108710.198 7238428.507 10 0 60924 52200.00000 0 10619919.172 -22796036.621 4106605.943 10 0 60924 53100.00000 0 10606348.941 -23149944.378 894757.556 10 0 60924 54000.00000 0 10408941.505 -23137753.191 -2334528.725 10 0 60924 54900.00000 0 10080147.797 -22738866.754 -5518300.908 10 0 60924 55800.00000 0 9676284.000 -21945759.466 -8594485.360 10 0 60924 56700.00000 0 9254925.700 -20764427.308 -11503112.396 10 0 60924 57600.00000 0 8872258.888 -19214282.848 -14187499.472 10 0 60924 58500.00000 0 8580501.989 -17327498.360 -16595367.329 10 0 60924 59400.00000 0 8425509.780 -15147824.723 -18679866.202 10 0 60924 60300.00000 0 8444661.975 -12728936.216 -20400491.372 10 0 60924 61200.00000 0 8665126.612 -10132371.383 -21723869.991 10 0 60924 62100.00000 0 9102571.981 -7425157.050 -22624404.155 10 0 60924 63000.00000 0 9760381.331 -4677215.510 -23084758.420 10 0 60924 63900.00000 0 10629402.938 -1958663.631 -23096183.299 10 0 60924 64800.00000 0 11688245.292 662883.562 -22658669.715 10 0 60924 65700.00000 0 12904104.058 3124892.993 -21780932.709 10 0 60924 66600.00000 0 14234085.156 5372270.978 -20480226.005 10 0 60924 67500.00000 0 15626967.627 7359401.457 -18781992.155 10 0 60924 68400.00000 0 17025331.726 9051782.229 -16719355.992 10 0 60924 69300.00000 0 18367962.676 10427193.325 -14332471.913 10 0 60924 70200.00000 0 19592429.226 11476351.369 -11667738.122 10 0 60924 71100.00000 0 20637729.171 12203025.189 -8776893.277 10 0 60924 72000.00000 0 21446891.326 12623610.215 -5716013.132 10 0 60924 72900.00000 0 21969425.484 12766181.695 -2544426.461 10 0 60924 73800.00000 0 22163518.357 12669068.147 676429.031 10 0 60924 74700.00000 0 21997884.069 12379006.226 3884189.003 10 0 60924 75600.00000 0 21453192.244 11948955.344 7016760.670 10 0 60924 76500.00000 0 20523014.189 11435664.227 10013514.359 10 0 60924 77400.00000 0 19214247.633 10897091.695 12816446.089 10 0 60924 78300.00000 0 17547001.910 10389789.752 15371289.562 10 0 60924 79200.00000 0 15553947.717 9966358.472 17628556.998 10 0 60924 80100.00000 0 13279157.425 9673079.099 19544489.536 10 0 60924 81000.00000 0 10776482.847 9547824.356 21081899.720 10 0 60924 81900.00000 0 8107536.171 9618333.561 22210890.467 10 0 60924 82800.00000 0 5339356.116 9900925.136 22909437.035 10 0 60924 83700.00000 0 2541854.256 10399701.225 23163820.908 10 0 60924 84600.00000 0 -214854.370 11106278.933 22968906.912 10 0 60924 85500.00000 0 -2863127.174 12000061.022 22328257.558 10 0 60925 0.00000 0 -5340366.460 13049036.520 21254081.459 10 0 60925 900.00000 0 -7591383.693 14211080.296 19767014.754 10 0 60925 1800.00000 0 -9570454.367 15435697.587 17895739.745 10 0 60925 2700.00000 0 -11242982.309 16666143.828 15676444.512 10 0 60925 3600.00000 0 -12586700.258 17841830.545 13152133.765 10 0 60925 4500.00000 0 -13592357.341 18900917.275 10371802.474 10 0 60925 5400.00000 0 -14263863.822 19782980.208 7389487.507 10 0 60925 6300.00000 0 -14617886.637 20431644.342 4263215.276 10 0 60925 7200.00000 0 -14682912.583 20797066.742 1053866.058 10 0 60925 8100.00000 0 -14497818.943 20838164.291 -2176022.184 10 0 60925 9000.00000 0 -14110012.691 20524489.853 -5363486.011 10 0 60925 9900.00000 0 -13573218.143 19837675.558 -8446379.133 10 0 60925 10800.00000 0 -12945008.287 18772380.484 -11364599.509 10 0 60925 11700.00000 0 -12284186.120 17336701.291 -14061275.302 10 0 60925 12600.00000 0 -11648128.757 15552027.583 -16483884.964 10 0 60925 13500.00000 0 -11090208.452 13452347.642 -18585288.474 10 0 60925 14400.00000 0 -10657401.059 11083033.768 -20324648.869 10 0 60925 15300.00000 0 -10388183.986 8499158.629 -21668225.853 10 0 60925 16200.00000 0 -10310812.853 5763413.759 -22590026.291 10 0 60925 17100.00000 0 -10442049.463 2943717.871 -23072299.621 10 0 60925 18000.00000 0 -10786394.102 110615.367 -23105869.540 10 0 60925 18900.00000 0 -11335853.556 -2665426.348 -22690296.788 10 0 60925 19800.00000 0 -12070253.392 -5316708.441 -21833871.154 10 0 60925 20700.00000 0 -12958080.116 -7780869.831 -20553434.187 10 0 60925 21600.00000 0 -13957816.590 -10003228.342 -18874037.175 10 0 60925 22500.00000 0 -15019713.625 -11938798.150 -16828441.995 10 0 60925 23400.00000 0 -16087922.564 -13553901.590 -14456475.245 10 0 60925 24300.00000 0 -17102898.867 -14827310.526 -11804248.648 10 0 60925 25200.00000 0 -18003975.673 -15750872.119 -8923261.078 10 0 60925 26100.00000 0 -18731999.372 -16329595.241 -5869399.682 10 0 60925 27000.00000 0 -19231916.939 -16581196.147 -2701859.311 10 0 60925 27900.00000 0 -19455206.864 -16535124.318 517999.088 10 0 60925 28800.00000 0 -19362052.202 -16231110.798 3727829.403 10 0 60925 29700.00000 0 -18923165.032 -15717300.971 6865498.263 10 0 60925 30600.00000 0 -18121186.111 -15048050.727 9870277.425 10 0 60925 31500.00000 0 -16951601.138 -14281478.670 12684008.260 10 0 60925 32400.00000 0 -15423134.975 -13476876.955 15252216.690 10 0 60925 33300.00000 0 -13557606.622 -12692088.932 17525157.939 10 0 60925 34200.00000 0 -11389249.937 -11980963.042 19458771.762 10 0 60925 35100.00000 0 -8963526.876 -11390989.157 21015530.569 10 0 60925 36000.00000 0 -6335480.848 -10961215.997 22165164.759 10 0 60925 36900.00000 0 -3567696.579 -10720536.737 22885251.662 10 0 60925 37800.00000 0 -727949.092 -10686414.823 23161656.901 10 0 60925 38700.00000 0 2113362.783 -10864104.006 22988819.360 10 0 60925 39600.00000 0 4885893.715 -11246396.321 22369873.631 10 0 60925 40500.00000 0 7522030.515 -11813909.980 21316606.510 10 0 60925 41400.00000 0 9959462.010 -12535906.762 19849247.032 10 0 60925 42300.00000 0 12143533.976 -13371606.311 17996092.490 10 0 60925 43200.00000 0 14029291.257 -14271943.715 15792976.051 10 0 60925 44100.00000 0 15583121.676 -15181697.740 13282584.639 10 0 60925 45000.00000 0 16783932.468 -16041900.856 10513639.042 10 0 60925 45900.00000 0 17623809.269 -16792429.664 7539951.208 10 0 60925 46800.00000 0 18108129.376 -17374665.903 4419376.598 10 0 60925 47700.00000 0 18255124.031 -17734114.526 1212682.145 10 0 60925 48600.00000 0 18094908.123 -17822866.556 -2017647.469 10 0 60925 49500.00000 0 17668018.605 -17601800.614 -5208640.811 10 0 60925 50400.00000 0 17023524.235 -17042427.895 -8298082.420 10 0 60925 51300.00000 0 16216787.869 -16128300.572 -11225741.310 10 0 60925 52200.00000 0 15306977.568 -14855922.337 -13934559.599 10 0 60925 53100.00000 0 14354433.581 -13235121.325 -16371776.476 10 0 60925 54000.00000 0 13418004.305 -11288868.821 -18489964.400 10 0 60925 54900.00000 0 12552465.293 -9052551.000 -20247956.568 10 0 60925 55800.00000 0 11806131.429 -6572724.350 -21611647.258 10 0 60925 56700.00000 0 11218763.578 -3905407.318 -22554649.705 10 0 60925 57600.00000 0 10819857.951 -1113980.125 -23058799.379 10 0 60925 58500.00000 0 10627389.652 1733219.007 -23114493.857 10 0 60925 59400.00000 0 10647062.234 4565500.700 -22720863.928 10 0 60925 60300.00000 0 10872093.416 7312525.806 -21885773.941 10 0 60925 61200.00000 0 11283544.362 9906989.313 -20625652.661 10 0 60925 62100.00000 0 11851177.083 12287176.057 -18965159.114 10 0 60925 63000.00000 0 12534802.411 14399283.279 -16936690.851 10 0 60925 63900.00000 0 13286060.686 16199415.080 -14579744.925 10 0 60925 64800.00000 0 14050559.365 17655167.801 -11940144.463 10 0 60925 65700.00000 0 14770277.180 18746742.442 -9069146.080 10 0 60925 66600.00000 0 15386133.512 19467539.944 -6022445.516 10 0 60925 67500.00000 0 15840615.079 19824216.627 -2859100.640 10 0 60925 68400.00000 0 16080349.787 19836199.394 359607.621 10 0 60925 69300.00000 0 16058519.974 19534682.573 3571354.717 10 0 60925 70200.00000 0 15737014.074 18961149.619 6713970.007 10 0 60925 71100.00000 0 15088226.675 18165482.377 9726629.860 10 0 60925 72000.00000 0 14096431.519 17203737.458 12551023.979 10 0 60925 72900.00000 0 12758669.676 16135682.885 15132473.222 10 0 60925 73800.00000 0 11085115.111 15022197.796 17420978.238 10 0 60925 74700.00000 0 9098901.286 13922643.554 19372179.518 10 0 60925 75600.00000 0 6835414.598 12892315.615 20948211.152 10 0 60925 76500.00000 0 4341082.193 11980082.141 22118432.515 10 0 60925 77400.00000 0 1671702.505 11226307.660 22860024.184 10 0 60925 78300.00000 0 -1109614.423 10661148.413 23158436.736 10 0 60925 79200.00000 0 -3934813.638 10303290.846 23007683.543 10 0 60925 80100.00000 0 -6733472.878 10159186.555 22410471.276 10 0 60925 81000.00000 0 -9435485.999 10222816.629 21378164.569 10 0 60925 81900.00000 0 -11973742.212 10475996.469 19930584.203 10 0 60925 82800.00000 0 -14286690.705 10889209.647 18095641.110 10 0 60925 83700.00000 0 -16320684.275 11422937.179 15908811.643 10 0 60925 84600.00000 0 -18032004.186 12029427.466 13412462.656 10 0 60925 85500.00000 0 -19388481.113 12654833.206 10655038.155 99